Abilene Dyess, TX

6:27 PM CST on November 11, 2019 (GMT -0600)
Dyess Air Force Base

Weather History for KDYS - July, 2019

Change the Weather History Date:

Sunday, July 14, 2019

  Actual Average Record
Temperature  
Mean Temperature 82 °F -  
Max Temperature 94 °F 95 °F 107 °F (2003)
Min Temperature 70 °F 73 °F 66 °F (2013)
Cooling Degree Days 16    
Growing Degree Days 32 (Base 50)    
Moisture  
Dew Point 63 °F    
Average Humidity 54    
Maximum Humidity 72    
Minimum Humidity 35    
Precipitation  
Precipitation 0.00 in - - ()
Sea Level Pressure  
Sea Level Pressure 29.85 in    
Wind  
Wind Speed 5 mph (NNE)    
Max Wind Speed 14 mph    
Max Gust Speed 24 mph    
Visibility 10 miles    
Events      
Averages and records for this station are not official NWS values.
T = Trace of Precipitation, MM = Missing Value Source: NWS Daily Summary

Daily Weather History Graph

Daily Weather History Graph

Search for Another Location

Airport or City:

Astronomy

Jul. 14, 2019 Rise Set
Actual Time 6:42 AM CDT 8:47 PM CDT
Civil Twilight 6:14 AM CDT 9:15 PM CDT
Nautical Twilight 5:40 AM CDT 9:49 PM CDT
Astronomical Twilight 5:04 AM CDT 10:25 PM CDT
Moon 7:11 PM CDT (7/14) 4:44 AM CDT (7/14)
Length of Visible Light 15h 01m
Length of Day
14h 05m
Waxing Gibbous, 95% of the Moon is Illuminated
Jul 14
Waxing Gibbous
Jul 16
Full
Jul 24
Last Quarter
Jul 31
New
Aug 7
First Quarter

Hourly Weather History & Observations

Time (CDT) Temp. Heat Index Dew Point Humidity Pressure Visibility Wind Dir Wind Speed Gust Speed Precip Events Conditions
12:56 AM 71.8 °F - 61.0 °F 69% 29.86 in 10.0 mi SW 3.5 mph - N/A   Clear
1:56 AM 71.2 °F - 61.0 °F 70% 29.86 in 10.0 mi Calm Calm - N/A   Clear
2:56 AM 70.9 °F - 60.3 °F 69% 29.86 in 10.0 mi Calm Calm - N/A   Clear
3:56 AM 70.2 °F - 59.9 °F 70% 29.86 in 10.0 mi Calm Calm - N/A   Clear
4:56 AM 70.3 °F - 60.1 °F 70% 29.86 in 10.0 mi Calm Calm - N/A   Clear
5:56 AM 70.0 °F - 60.1 °F 71% 29.87 in 10.0 mi Calm Calm - N/A   Clear
6:56 AM 70.2 °F - 60.6 °F 72% 29.89 in 10.0 mi WNW 4.6 mph - N/A   Clear
7:56 AM 73.4 °F - 61.7 °F 67% 29.90 in 10.0 mi NW 5.8 mph - N/A   Clear
8:56 AM 77.7 °F - 64.6 °F 64% 29.91 in 10.0 mi North 5.8 mph - N/A   Clear
9:56 AM 82.0 °F 84.7 °F 67.3 °F 61% 29.92 in 10.0 mi North 8.1 mph - N/A   Clear
10:56 AM 85.5 °F 87.1 °F 65.1 °F 50% 29.91 in 10.0 mi NNE 11.5 mph - N/A   Scattered Clouds
11:56 AM 87.1 °F 88.6 °F 64.4 °F 47% 29.91 in 10.0 mi North 12.7 mph - N/A   Mostly Cloudy
12:56 PM 89.1 °F 91.0 °F 64.9 °F 45% 29.89 in 10.0 mi NNE 13.8 mph 19.6 mph N/A   Partly Cloudy
1:56 PM 91.6 °F 93.1 °F 64.4 °F 40% 29.87 in 10.0 mi North 9.2 mph - N/A   Mostly Cloudy
2:43 PM 91.4 °F 93.2 °F 64.4 °F 41% 29.85 in 10.0 mi NE 13.8 mph 24.2 mph N/A   Scattered Clouds
2:56 PM 92.7 °F 94.4 °F 64.0 °F 39% 29.84 in 10.0 mi NNE 11.5 mph 21.9 mph N/A   Mostly Cloudy
3:31 PM 91.4 °F 92.1 °F 62.6 °F 38% 29.85 in 10.0 mi North 13.8 mph - N/A   Partly Cloudy
3:56 PM 93.9 °F 94.8 °F 62.8 °F 35% 29.82 in 10.0 mi NE 8.1 mph - N/A   Scattered Clouds
4:56 PM 93.2 °F 94.1 °F 62.2 °F 36% 29.81 in 10.0 mi NE 6.9 mph - N/A   Scattered Clouds
5:56 PM 93.4 °F 94.3 °F 62.4 °F 36% 29.80 in 10.0 mi NE 9.2 mph - N/A   Clear
6:56 PM 92.8 °F 93.5 °F 62.6 °F 36% 29.79 in 10.0 mi NNE 8.1 mph - N/A   Clear
7:56 PM 91.2 °F 92.2 °F 62.8 °F 39% 29.79 in 10.0 mi NE 8.1 mph - N/A   Clear
8:56 PM 86.4 °F 88.7 °F 66.0 °F 51% 29.79 in 10.0 mi East 11.5 mph - N/A   Clear
9:56 PM 82.9 °F 84.8 °F 65.1 °F 55% 29.82 in 10.0 mi East 5.8 mph - N/A   Clear
10:56 PM 82.0 °F 84.5 °F 66.7 °F 60% 29.82 in 10.0 mi East 5.8 mph - N/A   Clear
11:56 PM 80.2 °F 82.5 °F 66.4 °F 63% 29.83 in 10.0 mi ESE 4.6 mph - N/A   Clear